Lid_Strength_Index
12 11 12 12 11 10 10 10 10 8 7 6 6 5 5 5 5 5 5 5 4 4 3 3 3 3 3
13 12 12 11 11 11 10 10 10 8 6 5 5 6 6 6 6 6 6 5 5 5 5 4 4 4 3
14 12 12 11 11 10 10 9 8 7 6 6 6 6 6 6 6 6 6 6 6 6 5 5 4 4 4
13 13 12 11 11 12 11 10 9 9 8 7 7 7 7 7 7 7 7 7 6 6 6 6 5 5 4
14 13 13 13 12 11 11 10 11 9 10 10 10 10 10 8 8 8 7 7 6 6 5 4 4 4 4
13 13 12 11 11 11 11 12 13 9 11 11 10 11 10 10 8 7 7 6 6 5 5 4 4 4 3
12 12 12 11 11 12 11 12 13 11 12 13 10 11 10 10 8 7 7 6 5 5 5 5 5 4 4
10 10 10 10 10 10 11 12 11 10 11 14 11 12 10 10 8 8 7 6 6 5 5 5 5 5 4
8 8 8 8 9 11 12 13 13 12 10 13 12 12 11 12 10 8 7 6 6 6 5 5 5 5 5
10 10 9 10 8 10 11 13 13 14 11 13 12 12 14 11 11 11 10 8 7 6 6 5 5 6 7
11 11 11 11 10 10 10 11 13 13 11 11 12 13 13 13 12 12 11 10 9 9 6 6 5 6 8
12 12 12 11 11 10 10 10 10 12 10 11 12 13 13 14 14 12 11 10 9 9 9 7 6 5 5
13 12 11 11 10 10 9 9 10 10 10 10 11 11 11 13 14 12 11 10 9 9 8 8 8 8 8
12 12 11 11 11 10 11 11 11 11 10 10 9 9 11 12 12 12 11 12 10 9 8 8 8 7 7
12 12 12 12 12 11 11 11 12 12 12 10 9 9 9 11 12 11 11 10 9 9 9 9 9 8 7
12 12 12 12 12 11 11 12 12 12 12 11 10 10 11 10 8 11 11 11 10 9 9 10 10 8 7
12 12 12 12 12 13 12 12 12 12 11 10 10 11 13 14 11 8 11 11 11 10 9 9 10 9 8